Year,Month,Day,Hour,Minute,Value (Times are PST for temperature in C)
2014,07,09,00,00,20.90
2014,07,09,00,01,20.90
2014,07,09,00,02,20.90
2014,07,09,00,03,20.90
2014,07,09,00,04,20.90
2014,07,09,00,05,20.90
2014,07,09,00,06,20.90
2014,07,09,00,07,20.90
2014,07,09,00,08,20.90
2014,07,09,00,09,20.80
2014,07,09,00,10,20.80
2014,07,09,00,11,20.80
2014,07,09,00,12,20.80
2014,07,09,00,13,20.80
2014,07,09,00,14,20.80
2014,07,09,00,15,20.70
2014,07,09,00,16,20.70
2014,07,09,00,17,20.70
2014,07,09,00,18,20.70
2014,07,09,00,19,20.60
2014,07,09,00,20,20.60
2014,07,09,00,21,20.60
2014,07,09,00,22,20.50
2014,07,09,00,23,20.50
2014,07,09,00,24,20.40
2014,07,09,00,25,20.40
2014,07,09,00,26,20.40
2014,07,09,00,27,20.40
2014,07,09,00,28,20.40
2014,07,09,00,29,20.40
2014,07,09,00,30,20.40
2014,07,09,00,31,20.40
2014,07,09,00,32,20.40
2014,07,09,00,33,20.40
2014,07,09,00,34,20.40
2014,07,09,00,35,20.40
2014,07,09,00,36,20.40
2014,07,09,00,37,20.40
2014,07,09,00,38,20.40
2014,07,09,00,39,20.40
2014,07,09,00,40,20.40
2014,07,09,00,41,20.40
2014,07,09,00,42,20.40
2014,07,09,00,43,20.40
2014,07,09,00,44,20.40
2014,07,09,00,45,20.40
2014,07,09,00,46,20.40
2014,07,09,00,47,20.40
2014,07,09,00,48,20.40
2014,07,09,00,49,20.40
2014,07,09,00,50,20.40
2014,07,09,00,51,20.40
2014,07,09,00,52,20.50
2014,07,09,00,53,20.50
2014,07,09,00,54,20.50
2014,07,09,00,55,20.50
2014,07,09,00,56,20.50
2014,07,09,00,57,20.40
2014,07,09,00,58,20.40
2014,07,09,00,59,20.40
2014,07,09,01,00,20.40
2014,07,09,01,01,20.40
2014,07,09,01,02,20.40
2014,07,09,01,03,20.30
2014,07,09,01,04,20.30
2014,07,09,01,05,20.30
2014,07,09,01,06,20.30
2014,07,09,01,07,20.30
2014,07,09,01,08,20.20
2014,07,09,01,09,20.20
2014,07,09,01,10,20.20
2014,07,09,01,11,20.20
2014,07,09,01,12,20.20
2014,07,09,01,13,20.20
2014,07,09,01,14,20.10
2014,07,09,01,15,20.10
2014,07,09,01,16,20.10
2014,07,09,01,17,20.10
2014,07,09,01,18,20.10
2014,07,09,01,19,20.10
2014,07,09,01,20,20.10
2014,07,09,01,21,20.20
2014,07,09,01,22,20.20
2014,07,09,01,23,20.30
2014,07,09,01,24,20.30
2014,07,09,01,25,20.30
2014,07,09,01,26,20.30
2014,07,09,01,27,20.30
2014,07,09,01,28,20.30
2014,07,09,01,29,20.30
2014,07,09,01,30,20.30
2014,07,09,01,31,20.30
2014,07,09,01,32,20.30
2014,07,09,01,33,20.30
2014,07,09,01,34,20.30
2014,07,09,01,35,20.30
2014,07,09,01,36,20.30
2014,07,09,01,37,20.30
2014,07,09,01,38,20.30
2014,07,09,01,39,20.30
2014,07,09,01,40,20.30
2014,07,09,01,41,20.30
2014,07,09,01,42,20.30
2014,07,09,01,43,20.30
2014,07,09,01,44,20.20
2014,07,09,01,45,20.20
2014,07,09,01,46,20.20
2014,07,09,01,47,20.20
2014,07,09,01,48,20.20
2014,07,09,01,49,20.10
2014,07,09,01,50,20.10
2014,07,09,01,51,20.10
2014,07,09,01,52,20.10
2014,07,09,01,53,20.00
2014,07,09,01,54,20.00
2014,07,09,01,55,20.00
2014,07,09,01,56,19.90
2014,07,09,01,57,19.90
2014,07,09,01,58,19.90
2014,07,09,01,59,19.80
2014,07,09,02,00,19.80
2014,07,09,02,01,19.70
2014,07,09,02,02,19.70
2014,07,09,02,03,19.70
2014,07,09,02,04,19.70
2014,07,09,02,05,19.70
2014,07,09,02,06,19.70
2014,07,09,02,07,19.70
2014,07,09,02,08,19.70
2014,07,09,02,09,19.70
2014,07,09,02,10,19.70
2014,07,09,02,11,19.70
2014,07,09,02,12,19.70
2014,07,09,02,13,19.70
2014,07,09,02,14,19.70
2014,07,09,02,15,19.60
2014,07,09,02,16,19.60
2014,07,09,02,17,19.60
2014,07,09,02,18,19.70
2014,07,09,02,19,19.70
2014,07,09,02,20,19.70
2014,07,09,02,21,19.70
2014,07,09,02,22,19.70
2014,07,09,02,23,19.70
2014,07,09,02,24,19.60
2014,07,09,02,25,19.60
2014,07,09,02,26,19.60
2014,07,09,02,27,19.50
2014,07,09,02,28,19.50
2014,07,09,02,29,19.40
2014,07,09,02,30,19.40
2014,07,09,02,31,19.40
2014,07,09,02,32,19.40
2014,07,09,02,33,19.30
2014,07,09,02,34,19.30
2014,07,09,02,35,19.30
2014,07,09,02,36,19.30
2014,07,09,02,37,19.20
2014,07,09,02,38,19.20
2014,07,09,02,39,19.20
2014,07,09,02,40,19.20
2014,07,09,02,41,19.10
2014,07,09,02,42,19.10
2014,07,09,02,43,19.10
2014,07,09,02,44,19.10
2014,07,09,02,45,19.00
2014,07,09,02,46,19.00
2014,07,09,02,47,19.00
2014,07,09,02,48,19.00
2014,07,09,02,49,19.00
2014,07,09,02,50,19.00
2014,07,09,02,51,19.00
2014,07,09,02,52,19.00
2014,07,09,02,53,19.10
2014,07,09,02,54,19.10
2014,07,09,02,55,19.10
2014,07,09,02,56,19.20
2014,07,09,02,57,19.20
2014,07,09,02,58,19.20
2014,07,09,02,59,19.20
2014,07,09,03,00,19.20
2014,07,09,03,01,19.20
2014,07,09,03,02,19.20
2014,07,09,03,03,19.10
2014,07,09,03,04,19.10
2014,07,09,03,05,19.10
2014,07,09,03,06,19.10
2014,07,09,03,07,19.10
2014,07,09,03,08,19.10
2014,07,09,03,09,19.00
2014,07,09,03,10,19.00
2014,07,09,03,11,19.00
2014,07,09,03,12,18.90
2014,07,09,03,13,18.90
2014,07,09,03,14,18.90
2014,07,09,03,15,18.90
2014,07,09,03,16,18.90
2014,07,09,03,17,18.80
2014,07,09,03,18,18.80
2014,07,09,03,19,18.80
2014,07,09,03,20,18.80
2014,07,09,03,21,18.70
2014,07,09,03,22,18.70
2014,07,09,03,23,18.70
2014,07,09,03,24,18.70
2014,07,09,03,25,18.70
2014,07,09,03,26,18.70
2014,07,09,03,27,18.70
2014,07,09,03,28,18.70
2014,07,09,03,29,18.70
2014,07,09,03,30,18.70
2014,07,09,03,31,18.70
2014,07,09,03,32,18.70
2014,07,09,03,33,18.70
2014,07,09,03,34,18.70
2014,07,09,03,35,18.70
2014,07,09,03,36,18.70
2014,07,09,03,37,18.60
2014,07,09,03,38,18.60
2014,07,09,03,39,18.60
2014,07,09,03,40,18.60
2014,07,09,03,41,18.50
2014,07,09,03,42,18.50
2014,07,09,03,43,18.40
2014,07,09,03,44,18.40
2014,07,09,03,45,18.40
2014,07,09,03,46,18.30
2014,07,09,03,47,18.30
2014,07,09,03,48,18.30
2014,07,09,03,49,18.20
2014,07,09,03,50,18.20
2014,07,09,03,51,18.20
2014,07,09,03,52,18.20
2014,07,09,03,53,18.20
2014,07,09,03,54,18.20
2014,07,09,03,55,18.10
2014,07,09,03,56,18.10
2014,07,09,03,57,18.10
2014,07,09,03,58,18.10
2014,07,09,03,59,18.10
2014,07,09,04,00,18.10
2014,07,09,04,01,18.00
2014,07,09,04,02,18.00
2014,07,09,04,03,18.10
2014,07,09,04,04,18.00
2014,07,09,04,05,18.00
2014,07,09,04,06,18.00
2014,07,09,04,07,18.00
2014,07,09,04,08,17.90
2014,07,09,04,09,17.90
2014,07,09,04,10,17.90
2014,07,09,04,11,17.80
2014,07,09,04,12,17.80
2014,07,09,04,13,17.80
2014,07,09,04,14,17.70
2014,07,09,04,15,17.70
2014,07,09,04,16,17.70
2014,07,09,04,17,17.60
2014,07,09,04,18,17.60
2014,07,09,04,19,17.60
2014,07,09,04,20,17.50
2014,07,09,04,21,17.50
2014,07,09,04,22,17.50
2014,07,09,04,23,17.40
2014,07,09,04,24,17.40
2014,07,09,04,25,17.40
2014,07,09,04,26,17.30
2014,07,09,04,27,17.30
2014,07,09,04,28,17.30
2014,07,09,04,29,17.30
2014,07,09,04,30,17.20
2014,07,09,04,31,17.20
2014,07,09,04,32,17.20
2014,07,09,04,33,17.20
2014,07,09,04,34,17.20
2014,07,09,04,35,17.20
2014,07,09,04,36,17.20
2014,07,09,04,37,17.20
2014,07,09,04,38,17.20
2014,07,09,04,39,17.10
2014,07,09,04,40,17.20
2014,07,09,04,41,17.20
2014,07,09,04,42,17.20
2014,07,09,04,43,17.20
2014,07,09,04,44,17.20
2014,07,09,04,45,17.20
2014,07,09,04,46,17.10
2014,07,09,04,47,17.10
2014,07,09,04,48,17.10
2014,07,09,04,49,17.10
2014,07,09,04,50,17.10
2014,07,09,04,51,17.10
2014,07,09,04,52,17.10
2014,07,09,04,53,17.10
2014,07,09,04,54,17.10
2014,07,09,04,55,17.10
2014,07,09,04,56,17.00
2014,07,09,04,57,17.00
2014,07,09,04,58,17.00
2014,07,09,04,59,17.00
2014,07,09,05,00,17.00
2014,07,09,05,01,17.00
2014,07,09,05,02,17.10
2014,07,09,05,03,17.10
2014,07,09,05,04,17.10
2014,07,09,05,05,17.10
2014,07,09,05,06,17.10
2014,07,09,05,07,17.10
2014,07,09,05,08,17.10
2014,07,09,05,09,17.10
2014,07,09,05,10,17.10
2014,07,09,05,11,17.20
2014,07,09,05,12,17.20
2014,07,09,05,13,17.20
2014,07,09,05,14,17.20
2014,07,09,05,15,17.30
2014,07,09,05,16,17.30
2014,07,09,05,17,17.30
2014,07,09,05,18,17.30
2014,07,09,05,19,17.30
2014,07,09,05,20,17.30
2014,07,09,05,21,17.30
2014,07,09,05,22,17.30
2014,07,09,05,23,17.30
2014,07,09,05,24,17.40
2014,07,09,05,25,17.40
2014,07,09,05,26,17.40
2014,07,09,05,27,17.50
2014,07,09,05,28,17.60
2014,07,09,05,29,17.60
2014,07,09,05,30,17.60
2014,07,09,05,31,17.60
2014,07,09,05,32,17.60
2014,07,09,05,33,17.60
2014,07,09,05,34,17.60
2014,07,09,05,35,17.60
2014,07,09,05,36,17.60
2014,07,09,05,37,17.60
2014,07,09,05,38,17.60
2014,07,09,05,39,17.60
2014,07,09,05,40,17.60
2014,07,09,05,41,17.60
2014,07,09,05,42,17.60
2014,07,09,05,43,17.60
2014,07,09,05,44,17.70
2014,07,09,05,45,17.70
2014,07,09,05,46,17.70
2014,07,09,05,47,17.70
2014,07,09,05,48,17.80
2014,07,09,05,49,17.80
2014,07,09,05,50,17.80
2014,07,09,05,51,17.90
2014,07,09,05,52,17.90
2014,07,09,05,53,17.90
2014,07,09,05,54,17.90
2014,07,09,05,55,17.90
2014,07,09,05,56,17.90
2014,07,09,05,57,17.90
2014,07,09,05,58,17.90
2014,07,09,05,59,17.90
2014,07,09,06,00,17.90
2014,07,09,06,01,17.90
2014,07,09,06,02,17.90
2014,07,09,06,03,17.90
2014,07,09,06,04,17.90
2014,07,09,06,05,17.90
2014,07,09,06,06,17.80
2014,07,09,06,07,17.80
2014,07,09,06,08,17.80
2014,07,09,06,09,17.80
2014,07,09,06,10,17.80
2014,07,09,06,11,17.80
2014,07,09,06,12,17.80
2014,07,09,06,13,17.80
2014,07,09,06,14,17.70
2014,07,09,06,15,17.70
2014,07,09,06,16,17.70
2014,07,09,06,17,17.70
2014,07,09,06,18,17.70
2014,07,09,06,19,17.70
2014,07,09,06,20,17.70
2014,07,09,06,21,17.70
2014,07,09,06,22,17.70
2014,07,09,06,23,17.70
2014,07,09,06,24,17.70
2014,07,09,06,25,17.70
2014,07,09,06,26,17.70
2014,07,09,06,27,17.70
2014,07,09,06,28,17.70
2014,07,09,06,29,17.70
2014,07,09,06,30,17.70
2014,07,09,06,31,17.70
2014,07,09,06,32,17.70
2014,07,09,06,33,17.70
2014,07,09,06,34,17.70
2014,07,09,06,35,17.70
2014,07,09,06,36,17.70
2014,07,09,06,37,17.70
2014,07,09,06,38,17.70
2014,07,09,06,39,17.70
2014,07,09,06,40,17.70
2014,07,09,06,41,17.70
2014,07,09,06,42,17.70
2014,07,09,06,43,17.70
2014,07,09,06,44,17.70
2014,07,09,06,45,17.70
2014,07,09,06,46,17.70
2014,07,09,06,47,17.70
2014,07,09,06,48,17.70
2014,07,09,06,49,17.70
2014,07,09,06,50,17.70
2014,07,09,06,51,17.60
2014,07,09,06,52,17.60
2014,07,09,06,53,17.60
2014,07,09,06,54,17.60
2014,07,09,06,55,17.60
2014,07,09,06,56,17.60
2014,07,09,06,57,17.60
2014,07,09,06,58,17.60
2014,07,09,06,59,17.60
2014,07,09,07,00,17.60
2014,07,09,07,01,17.60
2014,07,09,07,02,17.60
2014,07,09,07,03,17.70
2014,07,09,07,04,17.70
2014,07,09,07,05,17.70
2014,07,09,07,06,17.70
2014,07,09,07,07,17.70
2014,07,09,07,08,17.70
2014,07,09,07,09,17.70
2014,07,09,07,10,17.70
2014,07,09,07,11,17.70
2014,07,09,07,12,17.70
2014,07,09,07,13,17.70
2014,07,09,07,14,17.70
2014,07,09,07,15,17.70
2014,07,09,07,16,17.70
2014,07,09,07,17,17.70
2014,07,09,07,18,17.70
2014,07,09,07,19,17.70
2014,07,09,07,20,17.70
2014,07,09,07,21,17.70
2014,07,09,07,22,17.70
2014,07,09,07,23,17.70
2014,07,09,07,24,17.70
2014,07,09,07,25,17.80
2014,07,09,07,26,17.80
2014,07,09,07,27,17.80
2014,07,09,07,28,17.80
2014,07,09,07,29,17.80
2014,07,09,07,30,17.80
2014,07,09,07,31,17.80
2014,07,09,07,32,17.80
2014,07,09,07,33,17.80
2014,07,09,07,34,17.90
2014,07,09,07,35,17.90
2014,07,09,07,36,17.90
2014,07,09,07,37,17.90
2014,07,09,07,38,17.90
2014,07,09,07,39,17.90
2014,07,09,07,40,17.90
2014,07,09,07,41,18.00
2014,07,09,07,42,18.00
2014,07,09,07,43,18.10
2014,07,09,07,44,18.00
2014,07,09,07,45,18.00
2014,07,09,07,46,18.00
2014,07,09,07,47,18.00
2014,07,09,07,48,18.00
2014,07,09,07,49,18.00
2014,07,09,07,50,18.00
2014,07,09,07,51,18.00
2014,07,09,07,52,18.00
2014,07,09,07,53,18.00
2014,07,09,07,54,18.00
2014,07,09,07,55,18.10
2014,07,09,07,56,18.10
2014,07,09,07,57,18.10
2014,07,09,07,58,18.20
2014,07,09,07,59,18.20
2014,07,09,08,00,18.20
2014,07,09,08,01,18.20
2014,07,09,08,02,18.20
2014,07,09,08,03,18.20
2014,07,09,08,04,18.20
2014,07,09,08,05,18.20
2014,07,09,08,06,18.20
2014,07,09,08,07,18.20
2014,07,09,08,08,18.20
2014,07,09,08,09,18.20
2014,07,09,08,10,18.20
2014,07,09,08,11,18.20
2014,07,09,08,12,18.30
2014,07,09,08,13,18.40
2014,07,09,08,14,18.40
2014,07,09,08,15,18.50
2014,07,09,08,16,18.50
2014,07,09,08,17,18.60
2014,07,09,08,18,18.60
2014,07,09,08,19,18.70
2014,07,09,08,20,18.70
2014,07,09,08,21,18.70
2014,07,09,08,22,18.70
2014,07,09,08,23,18.70
2014,07,09,08,24,18.70
2014,07,09,08,25,18.70
2014,07,09,08,26,18.60
2014,07,09,08,27,18.60
2014,07,09,08,28,18.60
2014,07,09,08,29,18.70
2014,07,09,08,30,18.70
2014,07,09,08,31,18.80
2014,07,09,08,32,18.80
2014,07,09,08,33,18.80
2014,07,09,08,34,18.80
2014,07,09,08,35,18.90
2014,07,09,08,36,18.90
2014,07,09,08,37,18.80
2014,07,09,08,38,18.80
2014,07,09,08,39,18.90
2014,07,09,08,40,18.90
2014,07,09,08,41,18.90
2014,07,09,08,42,19.00
2014,07,09,08,43,19.00
2014,07,09,08,44,19.10
2014,07,09,08,45,19.10
2014,07,09,08,46,19.10
2014,07,09,08,47,19.10
2014,07,09,08,48,19.20
2014,07,09,08,49,19.20
2014,07,09,08,50,19.20
2014,07,09,08,51,19.20
2014,07,09,08,52,19.20
2014,07,09,08,53,19.20
2014,07,09,08,54,19.10
2014,07,09,08,55,19.10
2014,07,09,08,56,19.10
2014,07,09,08,57,19.00
2014,07,09,08,58,18.90
2014,07,09,08,59,18.80
2014,07,09,09,00,18.80
2014,07,09,09,01,18.80
2014,07,09,09,02,18.80
2014,07,09,09,03,18.80
2014,07,09,09,04,18.90
2014,07,09,09,05,18.90
2014,07,09,09,06,19.00
2014,07,09,09,07,19.00
2014,07,09,09,08,19.10
2014,07,09,09,09,19.10
2014,07,09,09,10,19.10
2014,07,09,09,11,19.10
2014,07,09,09,12,19.20
2014,07,09,09,13,19.20
2014,07,09,09,14,19.20
2014,07,09,09,15,19.30
2014,07,09,09,16,19.30
2014,07,09,09,17,19.40
2014,07,09,09,18,19.40
2014,07,09,09,19,19.50
2014,07,09,09,20,19.60
2014,07,09,09,21,19.60
2014,07,09,09,22,19.60
2014,07,09,09,23,19.60
2014,07,09,09,24,19.60
2014,07,09,09,25,19.70
2014,07,09,09,26,19.70
2014,07,09,09,27,19.70
2014,07,09,09,28,19.70
2014,07,09,09,29,19.70
2014,07,09,09,30,19.80
2014,07,09,09,31,19.80
2014,07,09,09,32,19.80
2014,07,09,09,33,19.80
2014,07,09,09,34,19.80
2014,07,09,09,35,19.80
2014,07,09,09,36,19.80
2014,07,09,09,37,19.80
2014,07,09,09,38,19.80
2014,07,09,09,39,19.90
2014,07,09,09,40,19.90
2014,07,09,09,41,20.10
2014,07,09,09,42,20.20
2014,07,09,09,43,20.20
2014,07,09,09,44,20.30
2014,07,09,09,45,20.30
2014,07,09,09,46,20.30
2014,07,09,09,47,20.30
2014,07,09,09,48,20.40
2014,07,09,09,49,20.40
2014,07,09,09,50,20.40
2014,07,09,09,51,20.40
2014,07,09,09,52,20.40
2014,07,09,09,53,20.30
2014,07,09,09,54,20.30
2014,07,09,09,55,20.30
2014,07,09,09,56,20.40
2014,07,09,09,57,20.40
2014,07,09,09,58,20.40
2014,07,09,09,59,20.50
2014,07,09,10,00,20.50
2014,07,09,10,01,20.60
2014,07,09,10,02,20.50
2014,07,09,10,03,20.50
2014,07,09,10,04,20.40
2014,07,09,10,05,20.40
2014,07,09,10,06,20.40
2014,07,09,10,07,20.40
2014,07,09,10,08,20.40
2014,07,09,10,09,20.40
2014,07,09,10,10,20.40
2014,07,09,10,11,20.40
2014,07,09,10,12,20.40
2014,07,09,10,13,20.40
2014,07,09,10,14,20.40
2014,07,09,10,15,20.40
2014,07,09,10,16,20.40
2014,07,09,10,17,20.50
2014,07,09,10,18,20.50
2014,07,09,10,19,20.50
2014,07,09,10,20,20.50
2014,07,09,10,21,20.50
2014,07,09,10,22,20.40
2014,07,09,10,23,20.40
2014,07,09,10,24,20.40
2014,07,09,10,25,20.40
2014,07,09,10,26,20.40
2014,07,09,10,27,20.40
2014,07,09,10,28,20.40
2014,07,09,10,29,20.40
2014,07,09,10,30,20.40
2014,07,09,10,31,20.40
2014,07,09,10,32,20.40
2014,07,09,10,33,20.30
2014,07,09,10,34,20.30
2014,07,09,10,35,20.30
2014,07,09,10,36,20.20
2014,07,09,10,37,20.30
2014,07,09,10,38,20.20
2014,07,09,10,39,20.20
2014,07,09,10,40,20.20
2014,07,09,10,41,20.20
2014,07,09,10,42,20.20
2014,07,09,10,43,20.20
2014,07,09,10,44,20.30
2014,07,09,10,45,20.30
2014,07,09,10,46,20.30
2014,07,09,10,47,20.30
2014,07,09,10,48,20.30
2014,07,09,10,49,20.30
2014,07,09,10,50,20.30
2014,07,09,10,51,20.30
2014,07,09,10,52,20.30
2014,07,09,10,53,20.30
2014,07,09,10,54,20.30
2014,07,09,10,55,20.30
2014,07,09,10,56,20.20
2014,07,09,10,57,20.10
2014,07,09,10,58,20.10
2014,07,09,10,59,20.10
2014,07,09,11,00,20.10
2014,07,09,11,01,20.20
2014,07,09,11,02,20.30
2014,07,09,11,03,20.40
2014,07,09,11,04,20.40
2014,07,09,11,05,20.40
2014,07,09,11,06,20.40
2014,07,09,11,07,20.40
2014,07,09,11,08,20.40
2014,07,09,11,09,20.50
2014,07,09,11,10,20.50
2014,07,09,11,11,20.50
2014,07,09,11,12,20.50
2014,07,09,11,13,20.60
2014,07,09,11,14,20.70
2014,07,09,11,15,20.70
2014,07,09,11,16,20.70
2014,07,09,11,17,20.70
2014,07,09,11,18,20.80
2014,07,09,11,19,20.90
2014,07,09,11,20,21.00
2014,07,09,11,21,21.00
2014,07,09,11,22,21.00
2014,07,09,11,23,21.00
2014,07,09,11,24,21.00
2014,07,09,11,25,21.00
2014,07,09,11,26,21.00
2014,07,09,11,27,21.00
2014,07,09,11,28,21.00
2014,07,09,11,29,21.00
2014,07,09,11,30,20.90
2014,07,09,11,31,20.80
2014,07,09,11,32,20.70
2014,07,09,11,33,20.70
2014,07,09,11,34,20.70
2014,07,09,11,35,20.70
2014,07,09,11,36,20.70
2014,07,09,11,37,20.70
2014,07,09,11,38,20.60
2014,07,09,11,39,20.60
2014,07,09,11,40,20.60
2014,07,09,11,41,20.60
2014,07,09,11,42,20.60
2014,07,09,11,43,20.70
2014,07,09,11,44,20.80
2014,07,09,11,45,20.70
2014,07,09,11,46,20.80
2014,07,09,11,47,20.80
2014,07,09,11,48,20.80
2014,07,09,11,49,20.80
2014,07,09,11,50,20.80
2014,07,09,11,51,20.80
2014,07,09,11,52,20.90
2014,07,09,11,53,20.90
2014,07,09,11,54,20.90
2014,07,09,11,55,20.80
2014,07,09,11,56,20.80
2014,07,09,11,57,20.90
2014,07,09,11,58,20.90
2014,07,09,11,59,20.90
2014,07,09,12,00,20.90
2014,07,09,12,01,21.00
2014,07,09,12,02,21.00
2014,07,09,12,03,21.10
2014,07,09,12,04,21.20
2014,07,09,12,05,21.20
2014,07,09,12,06,21.20
2014,07,09,12,07,21.30
2014,07,09,12,08,21.30
2014,07,09,12,09,21.30
2014,07,09,12,10,21.30
2014,07,09,12,11,21.30
2014,07,09,12,12,21.30
2014,07,09,12,13,21.30
2014,07,09,12,14,21.30
2014,07,09,12,15,21.30
2014,07,09,12,16,21.30
2014,07,09,12,17,21.40
2014,07,09,12,18,21.40
2014,07,09,12,19,21.50
2014,07,09,12,20,21.50
2014,07,09,12,21,21.60
2014,07,09,12,22,21.50
2014,07,09,12,23,21.60
2014,07,09,12,24,21.70
2014,07,09,12,25,21.70
2014,07,09,12,26,21.80
2014,07,09,12,27,21.80
2014,07,09,12,28,21.80
2014,07,09,12,29,21.80
2014,07,09,12,30,21.90
2014,07,09,12,31,22.00
2014,07,09,12,32,22.00
2014,07,09,12,33,22.00
2014,07,09,12,34,22.00
2014,07,09,12,35,22.10
2014,07,09,12,36,22.10
2014,07,09,12,37,22.10
2014,07,09,12,38,22.20
2014,07,09,12,39,22.30
2014,07,09,12,40,22.30
2014,07,09,12,41,22.40
2014,07,09,12,42,22.50
2014,07,09,12,43,22.50
2014,07,09,12,44,22.60
2014,07,09,12,45,22.50
2014,07,09,12,46,22.50
2014,07,09,12,47,22.40
2014,07,09,12,48,22.30
2014,07,09,12,49,22.30
2014,07,09,12,50,22.30
2014,07,09,12,51,22.40
2014,07,09,12,52,22.50
2014,07,09,12,53,22.50
2014,07,09,12,54,22.60
2014,07,09,12,55,22.60
2014,07,09,12,56,22.60
2014,07,09,12,57,22.60
2014,07,09,12,58,22.70
2014,07,09,12,59,22.80
2014,07,09,13,00,22.80
2014,07,09,13,01,22.90
2014,07,09,13,02,22.90
2014,07,09,13,03,22.90
2014,07,09,13,04,22.90
2014,07,09,13,05,22.80
2014,07,09,13,06,22.80
2014,07,09,13,07,22.80
2014,07,09,13,08,22.80
2014,07,09,13,09,22.80
2014,07,09,13,10,22.80
2014,07,09,13,11,22.90
2014,07,09,13,12,22.90
2014,07,09,13,13,22.90
2014,07,09,13,14,23.00
2014,07,09,13,15,23.00
2014,07,09,13,16,23.10
2014,07,09,13,17,23.10
2014,07,09,13,18,23.00
2014,07,09,13,19,23.00
2014,07,09,13,20,23.00
2014,07,09,13,21,23.00
2014,07,09,13,22,23.00
2014,07,09,13,23,23.00
2014,07,09,13,24,23.10
2014,07,09,13,25,23.10
2014,07,09,13,26,23.10
2014,07,09,13,27,23.10
2014,07,09,13,28,23.10
2014,07,09,13,29,23.10
2014,07,09,13,30,23.10
2014,07,09,13,31,23.10
2014,07,09,13,32,23.10
2014,07,09,13,33,23.10
2014,07,09,13,34,23.10
2014,07,09,13,35,23.20
2014,07,09,13,36,23.20
2014,07,09,13,37,23.20
2014,07,09,13,38,23.20
2014,07,09,13,39,23.20
2014,07,09,13,40,23.20
2014,07,09,13,41,23.30
2014,07,09,13,42,23.30
2014,07,09,13,43,23.30
2014,07,09,13,44,23.30
2014,07,09,13,45,23.20
2014,07,09,13,46,23.20
2014,07,09,13,47,23.20
2014,07,09,13,48,23.30
2014,07,09,13,49,23.30
2014,07,09,13,50,23.30
2014,07,09,13,51,23.30
2014,07,09,13,52,23.40
2014,07,09,13,53,23.40
2014,07,09,13,54,23.30
2014,07,09,13,55,23.30
2014,07,09,13,56,23.30
2014,07,09,13,57,23.40
2014,07,09,13,58,23.30
2014,07,09,13,59,23.30
2014,07,09,14,00,23.30
2014,07,09,14,01,23.30
2014,07,09,14,02,23.30
2014,07,09,14,03,23.40
2014,07,09,14,04,23.40
2014,07,09,14,05,23.40
2014,07,09,14,06,23.40
2014,07,09,14,07,23.40
2014,07,09,14,08,23.30
2014,07,09,14,09,23.30
2014,07,09,14,10,23.20
2014,07,09,14,11,23.20
2014,07,09,14,12,23.10
2014,07,09,14,13,23.20
2014,07,09,14,14,23.30
2014,07,09,14,15,23.30
2014,07,09,14,16,23.30
2014,07,09,14,17,23.30
2014,07,09,14,18,23.20
2014,07,09,14,19,23.20
2014,07,09,14,20,23.20
2014,07,09,14,21,23.30
2014,07,09,14,22,23.30
2014,07,09,14,23,23.40
2014,07,09,14,24,23.40
2014,07,09,14,25,23.30
2014,07,09,14,26,23.30
2014,07,09,14,27,23.30
2014,07,09,14,28,23.30
2014,07,09,14,29,23.30
2014,07,09,14,30,23.40
2014,07,09,14,31,23.40
2014,07,09,14,32,23.40
2014,07,09,14,33,23.40
2014,07,09,14,34,23.40
2014,07,09,14,35,23.40
2014,07,09,14,36,23.40
2014,07,09,14,37,23.40
2014,07,09,14,38,23.40
2014,07,09,14,39,23.40
2014,07,09,14,40,23.40
2014,07,09,14,41,23.50
2014,07,09,14,42,23.60
2014,07,09,14,43,23.60
2014,07,09,14,44,23.60
2014,07,09,14,45,23.70
2014,07,09,14,46,23.70
2014,07,09,14,47,23.80
2014,07,09,14,48,23.80
2014,07,09,14,49,23.80
2014,07,09,14,50,23.60
2014,07,09,14,51,23.50
2014,07,09,14,52,23.40
2014,07,09,14,53,23.40
2014,07,09,14,54,23.40
2014,07,09,14,55,23.60
2014,07,09,14,56,23.60
2014,07,09,14,57,23.70
2014,07,09,14,58,23.80
2014,07,09,14,59,23.90
2014,07,09,15,00,23.90
2014,07,09,15,01,23.90
2014,07,09,15,02,23.90
2014,07,09,15,03,23.90
2014,07,09,15,04,23.90
2014,07,09,15,05,23.90
2014,07,09,15,06,24.00
2014,07,09,15,07,24.00
2014,07,09,15,08,24.10
2014,07,09,15,09,24.10
2014,07,09,15,10,24.00
2014,07,09,15,11,23.90
2014,07,09,15,12,23.80
2014,07,09,15,13,23.90
2014,07,09,15,14,23.90
2014,07,09,15,15,23.80
2014,07,09,15,16,23.80
2014,07,09,15,17,23.90
2014,07,09,15,18,23.90
2014,07,09,15,19,24.00
2014,07,09,15,20,24.00
2014,07,09,15,21,23.90
2014,07,09,15,22,23.90
2014,07,09,15,23,23.90
2014,07,09,15,24,23.80
2014,07,09,15,25,23.80
2014,07,09,15,26,23.80
2014,07,09,15,27,23.90
2014,07,09,15,28,24.00
2014,07,09,15,29,24.10
2014,07,09,15,30,24.20
2014,07,09,15,31,24.20
2014,07,09,15,32,24.20
2014,07,09,15,33,24.20
2014,07,09,15,34,24.30
2014,07,09,15,35,24.30
2014,07,09,15,36,24.30
2014,07,09,15,37,24.30
2014,07,09,15,38,24.30
2014,07,09,15,39,24.40
2014,07,09,15,40,24.40
2014,07,09,15,41,24.40
2014,07,09,15,42,24.40
2014,07,09,15,43,24.40
2014,07,09,15,44,24.40
2014,07,09,15,45,24.40
2014,07,09,15,46,24.50
2014,07,09,15,47,24.60
2014,07,09,15,48,24.60
2014,07,09,15,49,24.60
2014,07,09,15,50,24.70
2014,07,09,15,51,24.80
2014,07,09,15,52,24.80
2014,07,09,15,53,24.90
2014,07,09,15,54,24.90
2014,07,09,15,55,24.90
2014,07,09,15,56,24.90
2014,07,09,15,57,24.90
2014,07,09,15,58,24.90
2014,07,09,15,59,25.00
2014,07,09,16,00,25.00
2014,07,09,16,01,25.00
2014,07,09,16,02,25.00
2014,07,09,16,03,24.90
2014,07,09,16,04,24.80
2014,07,09,16,05,24.80
2014,07,09,16,06,24.80
2014,07,09,16,07,24.90
2014,07,09,16,08,24.90
2014,07,09,16,09,24.90
2014,07,09,16,10,24.90
2014,07,09,16,11,24.90
2014,07,09,16,12,24.90
2014,07,09,16,13,24.90
2014,07,09,16,14,24.90
2014,07,09,16,15,24.90
2014,07,09,16,16,24.90
2014,07,09,16,17,24.90
2014,07,09,16,18,25.00
2014,07,09,16,19,25.00
2014,07,09,16,20,25.00
2014,07,09,16,21,24.90
2014,07,09,16,22,24.90
2014,07,09,16,23,24.90
2014,07,09,16,24,24.90
2014,07,09,16,25,24.80
2014,07,09,16,26,24.80
2014,07,09,16,27,24.80
2014,07,09,16,28,24.90
2014,07,09,16,29,25.00
2014,07,09,16,30,25.00
2014,07,09,16,31,25.00
2014,07,09,16,32,24.90
2014,07,09,16,33,24.90
2014,07,09,16,34,25.00
2014,07,09,16,35,25.00
2014,07,09,16,36,25.00
2014,07,09,16,37,25.00
2014,07,09,16,38,25.00
2014,07,09,16,39,25.00
2014,07,09,16,40,25.00
2014,07,09,16,41,25.00
2014,07,09,16,42,25.00
2014,07,09,16,43,25.00
2014,07,09,16,44,25.00
2014,07,09,16,45,25.00
2014,07,09,16,46,25.00
2014,07,09,16,47,25.00
2014,07,09,16,48,25.00
2014,07,09,16,49,25.00
2014,07,09,16,50,25.00
2014,07,09,16,51,25.00
2014,07,09,16,52,24.90
2014,07,09,16,53,24.90
2014,07,09,16,54,24.80
2014,07,09,16,55,24.80
2014,07,09,16,56,24.80
2014,07,09,16,57,24.90
2014,07,09,16,58,24.90
2014,07,09,16,59,24.90
2014,07,09,17,00,24.90
2014,07,09,17,01,25.00
2014,07,09,17,02,25.00
2014,07,09,17,03,25.00
2014,07,09,17,04,24.90
2014,07,09,17,05,24.90
2014,07,09,17,06,24.90
2014,07,09,17,07,24.90
2014,07,09,17,08,25.00
2014,07,09,17,09,25.00
2014,07,09,17,10,25.10
2014,07,09,17,11,25.20
2014,07,09,17,12,25.20
2014,07,09,17,13,25.20
2014,07,09,17,14,25.20
2014,07,09,17,15,25.10
2014,07,09,17,16,25.10
2014,07,09,17,17,25.10
2014,07,09,17,18,25.10
2014,07,09,17,19,25.10